GFSSW_sfc_temp_000.txt.gz
Temp
61 61 61 61 61 61 61 61 61 61 62 62 62 62 63 63 63 68 72 80 80 73 76 82 79 81 79 76 78 75 57 53 56 60 60 64 63 70 73 72 72 71 70 71 71
60 60 61 61 61 61 60 61 61 61 61 62 62 62 62 62 69 74 81 77 76 73 82 80 78 78 71 72 74 66 55 61 67 65 63 67 68 71 70 68 66 69 71 71 70
59 60 60 60 61 60 60 60 61 61 61 62 61 61 61 62 69 77 79 78 74 76 87 84 81 77 69 69 70 67 62 67 69 70 70 68 67 72 66 61 64 65 66 67 66
59 60 60 60 60 59 59 60 60 61 62 61 61 61 61 66 62 82 77 78 75 80 84 80 75 68 64 65 72 65 70 71 70 72 70 68 72 69 66 65 71 71 69 66 63
58 59 59 59 59 59 59 59 60 60 60 60 61 61 61 65 70 82 77 75 79 84 81 77 72 68 65 67 69 66 69 72 73 71 69 73 68 68 65 70 73 71 68 64 62
58 58 58 58 58 58 58 58 58 59 59 60 61 61 63 62 83 85 83 82 85 82 81 78 77 78 71 69 67 70 70 70 70 69 69 68 68 67 67 71 72 68 65 64 63
57 57 57 58 58 58 58 58 58 59 60 61 62 65 66 70 83 81 85 82 85 86 82 84 83 78 73 67 71 70 63 64 67 69 66 69 63 64 69 71 69 67 65 64 63
57 57 57 57 58 58 58 58 58 59 61 62 62 63 62 82 86 79 82 85 88 87 87 87 86 78 71 70 71 66 61 53 63 68 67 67 55 67 68 68 65 66 65 63 62
57 57 56 57 57 58 57 56 59 61 62 62 59 61 63 81 81 86 84 84 85 87 87 92 81 73 72 63 57 58 51 54 60 69 67 62 57 64 66 67 64 64 62 62 61
57 56 56 56 57 56 55 57 60 62 63 69 74 62 70 75 83 86 87 87 82 80 79 77 70 65 62 57 49 52 53 59 58 64 64 59 59 63 65 66 63 61 60 60 60
57 56 56 56 56 55 52 55 62 61 64 63 67 67 75 82 86 83 86 82 79 73 67 70 61 56 61 62 64 63 60 58 61 67 62 59 58 62 63 64 60 59 58 57 59
57 56 56 56 55 55 49 54 66 68 58 72 73 74 80 82 76 81 86 74 70 63 67 62 57 65 68 66 64 62 58 58 63 66 62 59 59 61 63 64 62 59 57 57 58
56 56 55 55 55 51 53 63 71 69 56 67 74 74 76 79 73 75 81 75 68 64 63 58 64 71 68 64 62 60 58 58 60 62 63 59 54 59 63 62 63 61 61 59 58
56 55 55 55 50 50 57 65 66 65 48 57 66 73 77 76 69 83 85 76 69 65 64 62 69 68 64 63 64 55 65 66 63 55 47 59 41 54 57 59 60 61 57 57 58
55 55 55 55 43 47 59 60 65 64 32 64 68 82 78 72 73 75 85 75 67 66 65 63 64 62 62 64 68 61 66 64 62 54 50 53 42 52 57 54 55 57 58 57 58
55 55 54 50 44 48 56 60 60 46 33 58 71 68 67 72 72 76 75 80 75 68 66 67 72 69 68 70 70 70 62 59 54 49 39 51 48 46 52 59 57 59 60 60 58
55 56 52 54 45 53 55 55 44 36 60 58 62 66 66 65 68 69 68 66 62 54 56 62 65 71 72 63 66 61 51 41 36 36 36 53 48 53 59 63 63 59 60 60 61
54 54 51 53 49 53 48 48 34 51 55 66 64 64 61 66 65 67 64 62 66 60 55 53 51 65 70 65 60 57 53 42 35 34 45 54 46 53 62 69 68 66 62 61 58
53 46 47 51 53 49 42 40 45 51 61 60 61 56 57 64 64 64 62 62 64 63 57 51 55 68 70 71 68 57 51 58 48 48 44 47 56 60 61 63 62 60 60 59 58
46 42 44 54 54 46 37 46 49 62 64 64 54 58 52 58 60 60 62 68 67 68 67 58 52 64 69 66 66 64 64 50 44 36 35 44 51 46 55 57 59 58 59 59 58
46 40 49 56 52 39 37 46 53 63 64 59 57 54 56 56 58 60 61 69 71 70 69 66 54 54 61 57 57 57 51 50 49 48 37 33 43 55 59 61 58 59 61 60 59
44 35 50 57 37 37 41 49 54 59 62 59 58 57 55 57 55 56 58 65 75 73 62 63 55 51 54 58 61 60 55 51 43 44 47 45 42 61 61 63 64 62 63 62 63
39 39 50 54 34 35 45 48 53 55 55 55 55 57 58 55 50 57 61 70 71 72 67 65 51 41 44 51 56 55 56 55 52 48 43 41 44 61 63 64 64 62 63 63 63
41 34 40 49 47 42 41 43 45 55 53 56 55 57 53 52 55 53 57 67 71 71 68 70 52 55 48 51 52 51 57 59 54 45 47 49 54 55 59 61 62 62 63 64 64
42 38 41 35 39 42 41 44 44 44 54 55 51 53 51 47 51 53 58 63 70 69 65 65 54 54 61 60 58 57 58 58 54 56 50 53 52 54 61 64 67 63 64 64 64
35 38 40 43 44 42 42 40 42 46 49 49 48 53 52 49 53 51 58 57 61 62 66 59 48 52 49 59 57 54 57 58 59 60 57 56 53 60 63 65 72 64 65 65 66
41 45 43 38 41 39 39 42 45 48 50 53 54 53 52 56 61 63 64 65 63 61 55 54 54 46 42 52 50 43 53 56 59 60 59 53 59 63 62 63 66 65 67 67 68

GFSSW_sfc_temp_003.txt.gz
Temp
61 61 61 61 61 61 61 61 61 61 62 62 62 62 62 62 62 64 69 77 79 71 73 78 77 77 76 71 74 69 55 50 55 57 59 61 61 66 70 68 67 67 66 67 68
60 60 60 60 61 60 60 60 61 61 61 62 62 62 61 61 62 69 77 76 74 73 80 79 74 75 68 68 69 63 53 56 63 62 61 63 65 68 66 64 63 64 67 68 66
59 59 60 60 60 59 59 60 60 61 61 61 61 61 61 60 64 76 79 78 74 74 82 80 77 74 63 65 66 63 59 65 66 66 66 65 66 69 63 58 63 62 64 65 62
59 59 59 59 59 59 59 59 60 61 61 61 61 61 61 62 59 76 76 76 76 78 79 77 74 66 61 63 67 61 69 68 70 68 67 65 69 65 64 64 69 67 65 63 60
58 59 59 58 59 59 58 59 59 60 60 60 60 60 59 61 66 79 77 75 77 78 78 76 73 70 63 66 68 61 66 70 71 68 67 69 65 65 63 67 68 67 65 60 58
58 58 58 58 58 58 58 58 58 58 59 60 60 60 58 58 80 82 80 80 80 78 78 78 75 76 70 70 65 70 68 69 67 67 67 65 63 65 64 68 66 65 61 60 60
57 57 57 58 58 58 58 58 57 58 59 61 61 61 60 67 79 79 78 77 82 82 78 79 79 76 73 66 72 70 63 66 64 65 65 67 61 62 66 67 64 62 61 60 60
57 57 57 57 57 58 58 57 57 59 60 61 62 59 58 76 81 77 77 79 83 85 84 82 83 76 73 72 69 64 60 53 63 66 66 66 55 64 65 64 61 61 61 60 59
57 56 56 57 57 57 57 56 58 60 62 62 56 57 59 76 74 80 81 78 80 80 82 89 81 74 72 63 58 58 52 55 60 67 64 61 57 63 64 64 60 59 58 59 58
57 56 56 56 57 56 55 56 59 59 62 66 70 58 66 70 78 81 79 81 77 76 74 74 68 64 61 58 49 52 53 56 57 62 62 58 59 62 62 62 59 58 57 57 57
58 57 56 56 56 55 52 52 58 58 59 61 63 64 71 77 81 79 80 77 74 70 63 65 59 54 60 62 63 61 57 56 59 65 61 59 58 61 61 59 57 56 55 55 56
57 57 56 56 56 55 48 51 59 58 51 67 68 69 76 76 68 76 81 71 67 60 63 58 53 63 66 64 61 58 55 54 59 63 60 58 58 59 60 61 57 56 55 55 55
56 56 56 56 55 49 48 58 61 59 51 62 68 68 70 73 67 69 77 71 65 61 60 58 63 67 64 60 58 57 54 55 56 60 59 54 52 54 59 60 59 58 57 56 56
56 55 55 55 50 45 52 57 57 57 46 54 61 68 72 74 66 78 79 73 66 63 61 61 66 65 61 59 60 52 62 61 59 53 46 56 40 50 54 57 57 57 54 55 56
56 56 55 55 43 43 52 54 58 57 31 60 63 76 72 67 69 72 80 70 64 64 62 61 61 60 59 61 63 59 65 60 57 51 46 48 40 49 51 51 52 55 56 54 56
55 56 55 49 43 46 52 53 54 44 32 55 66 63 62 66 68 71 72 74 73 64 62 65 68 65 65 67 65 68 57 55 49 45 37 48 45 44 49 54 54 56 58 57 56
56 56 53 53 43 49 52 50 42 34 56 54 59 62 63 60 64 66 64 59 59 52 52 59 61 65 68 60 61 57 49 39 35 35 35 50 45 48 57 59 59 58 57 57 57
55 54 52 52 48 49 45 44 33 48 51 62 60 60 58 61 61 63 62 58 60 59 52 50 49 61 66 62 58 54 53 40 34 33 44 50 43 52 60 63 63 63 61 58 55
52 49 48 49 52 48 39 36 43 49 59 58 58 54 52 60 60 61 59 60 61 61 56 50 52 64 67 67 64 55 49 55 46 43 40 44 50 57 57 59 58 56 57 56 56
49 45 44 51 52 44 35 43 48 58 61 62 51 55 49 54 56 57 57 65 62 63 63 56 48 60 67 65 64 60 61 48 42 34 33 41 45 46 54 56 54 54 54 56 55
46 40 47 54 51 37 32 43 52 60 62 58 56 52 53 54 57 56 57 65 67 65 63 57 52 51 59 55 56 54 50 48 47 43 36 31 40 54 55 54 55 57 58 57 57
44 35 48 53 34 34 37 47 55 58 59 58 56 57 53 55 53 53 57 62 71 68 57 59 51 47 52 56 59 58 54 50 43 40 43 41 41 56 56 60 57 57 60 60 60
39 42 49 51 31 32 43 46 52 53 56 53 52 56 56 53 47 53 57 65 66 66 59 58 48 43 45 50 54 52 54 51 48 45 42 40 43 58 58 59 61 58 60 61 59
39 33 40 45 43 40 39 41 44 53 51 52 50 53 50 49 51 50 54 62 64 64 64 63 50 52 47 52 52 49 53 54 51 41 45 46 51 55 58 58 61 58 58 60 61
40 34 38 33 37 39 38 40 42 41 51 51 47 49 47 42 46 47 52 58 64 63 60 58 52 54 59 62 58 55 54 54 51 52 50 54 50 57 61 57 63 59 58 60 59
34 36 40 37 41 38 39 36 40 45 45 46 45 49 47 43 46 43 50 50 53 57 53 52 48 50 48 57 58 56 57 57 56 54 52 53 52 61 61 61 60 62 61 61 61
41 43 41 36 36 35 37 39 42 44 47 49 46 46 46 51 54 55 56 56 55 53 50 52 47 44 41 51 50 44 53 54 54 56 56 49 59 61 61 60 62 65 63 63 64

GFSSW_sfc_temp_006.txt.gz
Temp
60 60 60 60 60 60 60 61 61 61 61 62 62 62 62 61 62 62 64 74 75 71 75 73 74 73 72 69 70 65 54 48 53 53 58 57 57 62 67 66 65 64 63 64 64
60 60 60 60 60 60 60 60 60 61 61 62 62 61 61 61 62 66 77 74 74 73 77 75 70 72 66 65 66 62 51 55 62 61 60 60 62 65 63 62 60 61 64 65 64
59 59 60 60 60 59 59 59 60 60 61 61 61 61 60 59 64 71 77 77 74 74 78 78 75 73 61 62 64 61 58 62 67 67 65 63 60 65 61 57 61 60 62 62 60
59 59 59 59 59 59 59 59 60 60 60 60 60 60 60 62 58 72 75 74 74 76 78 75 70 64 61 61 65 59 67 66 68 69 64 63 66 64 62 64 67 64 63 60 58
58 59 59 58 58 58 58 58 59 59 59 59 60 60 59 58 64 76 76 75 75 76 75 73 68 64 59 63 65 62 66 67 68 65 66 67 65 63 63 66 66 64 63 59 57
58 58 58 58 58 58 58 58 58 58 58 59 60 60 59 56 77 77 78 75 76 73 73 75 71 72 65 65 65 69 67 66 64 61 62 64 61 62 65 65 64 62 59 58 58
57 57 57 57 57 58 58 57 57 57 59 60 61 60 57 66 77 74 76 73 76 77 73 76 77 74 69 64 67 66 62 66 65 63 63 66 60 61 65 64 61 60 59 58 58
57 57 57 57 57 57 58 57 57 58 60 61 62 57 57 73 78 75 75 75 78 78 78 78 77 72 70 70 68 62 58 52 62 65 66 65 54 64 64 62 58 59 59 58 58
57 57 56 57 57 57 57 56 58 60 62 62 55 53 57 73 70 74 75 74 77 77 78 85 75 69 67 62 58 58 53 54 59 65 62 60 58 62 61 62 58 57 57 57 57
57 57 56 56 57 56 55 55 57 58 62 63 66 55 64 67 74 75 74 78 74 73 71 70 64 60 56 55 48 51 52 55 55 61 60 57 58 61 61 61 58 56 56 56 56
58 57 56 56 56 55 51 48 55 53 56 57 59 60 68 74 76 73 75 74 73 68 60 62 57 52 56 60 61 59 55 54 58 64 59 58 58 64 59 58 56 54 54 53 55
58 58 57 56 56 55 47 48 52 51 47 62 63 65 71 71 65 70 77 68 65 58 61 57 53 59 63 61 59 55 52 51 57 59 57 57 56 57 58 58 59 55 53 53 54
57 56 56 56 55 48 46 52 55 53 46 57 64 64 66 69 64 65 73 68 63 58 57 54 58 64 62 59 57 55 51 52 53 55 56 52 50 53 58 56 57 55 56 54 54
56 55 55 55 48 43 47 51 52 52 42 51 58 64 66 69 61 72 75 70 62 60 58 57 63 62 58 57 58 50 59 58 55 50 43 53 38 50 53 54 55 54 52 54 54
56 56 55 54 42 41 47 50 52 52 30 57 59 71 67 65 65 67 75 68 60 61 59 58 58 57 56 59 60 56 60 57 54 48 44 46 39 47 49 52 54 53 53 53 54
56 55 55 48 42 45 50 50 50 42 31 51 61 59 57 62 64 68 68 71 68 61 58 61 64 63 62 64 63 63 56 51 46 43 35 46 43 43 48 54 55 53 55 54 54
56 56 53 52 42 46 48 48 39 32 53 51 55 58 59 55 60 63 61 59 56 50 50 56 57 62 66 58 58 56 47 37 33 33 34 46 43 47 57 59 59 57 55 55 56
55 54 53 51 47 48 44 42 31 47 48 58 56 57 54 57 58 59 56 56 59 57 50 48 47 59 63 60 55 51 49 39 32 31 39 46 41 51 58 59 59 59 57 56 55
53 50 48 49 50 47 39 33 42 46 56 53 55 51 50 57 57 57 57 58 59 58 55 47 49 60 63 64 63 51 47 52 43 40 38 41 48 55 57 56 55 53 54 54 54
47 46 48 49 51 42 33 41 44 55 58 59 48 52 47 51 54 56 54 62 60 60 60 53 46 57 63 62 59 58 59 46 40 34 32 39 42 44 53 56 54 52 51 53 54
45 40 50 53 52 40 29 38 48 57 57 55 54 49 51 51 53 51 53 61 66 59 63 54 51 49 57 52 52 51 47 46 46 41 34 30 38 50 54 57 56 54 53 54 55
43 34 48 52 36 37 33 41 49 54 56 55 54 54 51 52 51 52 53 60 66 64 54 56 50 44 50 53 58 58 52 50 41 40 40 39 42 55 55 57 59 57 55 54 57
39 39 46 48 32 32 37 41 46 49 52 50 50 53 54 52 47 51 54 63 63 65 55 55 45 39 42 48 51 51 51 49 46 42 39 39 43 56 56 58 59 57 55 56 56
34 32 37 40 44 37 34 36 38 50 49 50 48 50 49 50 50 49 51 59 61 62 61 62 47 48 46 47 50 47 50 50 49 39 43 42 49 54 57 58 59 54 55 56 57
35 33 38 31 34 34 36 38 38 38 49 49 45 47 45 43 46 46 50 54 61 61 57 55 46 48 52 56 54 56 53 51 49 51 47 50 49 57 56 58 60 57 55 55 55
33 34 38 34 38 37 37 33 37 43 42 45 42 46 45 41 44 43 47 49 50 54 51 50 45 48 47 54 54 53 55 54 56 51 49 53 50 58 59 59 61 59 57 58 58
39 42 39 34 36 36 36 37 39 42 44 47 46 44 43 46 50 51 51 50 49 48 47 47 45 41 39 49 49 45 54 53 54 53 54 50 55 57 55 57 59 59 59 59 60

GFSSW_sfc_temp_009.txt.gz
Temp
61 60 60 60 60 60 60 60 61 61 61 62 62 62 61 61 62 66 70 82 81 70 75 79 81 82 82 81 80 78 70 66 67 67 72 75 74 74 77 75 74 74 73 73 74
60 60 60 60 60 60 60 60 60 61 61 61 61 61 61 61 67 72 78 75 73 73 81 80 77 80 78 78 78 75 68 68 75 76 75 76 76 76 74 71 72 72 71 72 74
59 59 60 60 60 59 59 59 60 60 61 61 61 61 61 62 70 78 75 75 73 77 87 85 83 81 77 77 76 74 70 76 76 79 79 76 72 77 74 69 75 74 71 71 72
59 59 59 59 59 59 59 59 59 60 60 60 60 60 60 65 65 81 75 74 73 83 84 82 80 77 75 73 77 70 75 77 79 77 74 73 76 73 74 79 77 77 75 72 70
58 58 58 58 58 58 58 58 59 59 59 59 60 61 63 66 70 84 75 75 79 81 82 81 79 77 73 75 74 71 76 75 76 75 75 75 73 75 73 76 75 74 71 71 70
58 58 58 58 58 58 58 57 57 57 58 59 60 60 63 60 84 84 82 81 83 81 81 83 81 83 76 74 73 77 75 75 75 74 74 74 72 72 76 73 72 71 72 70 70
57 57 57 57 57 58 58 57 57 57 58 60 61 62 61 68 84 83 82 81 82 82 78 84 84 81 79 74 78 75 71 73 74 75 74 75 70 69 77 73 71 70 69 69 69
57 57 57 57 57 57 58 57 57 58 59 61 62 61 62 79 82 81 81 81 83 84 84 84 86 82 79 79 75 71 69 65 71 72 73 74 65 75 76 70 69 68 68 67 68
57 57 57 57 57 57 57 56 57 59 61 62 59 60 63 77 74 81 82 78 82 82 84 85 85 78 77 72 67 67 62 64 65 72 71 71 66 75 72 70 70 67 67 67 68
58 57 57 57 57 57 56 56 57 59 63 64 66 60 70 72 78 80 79 82 79 77 77 79 77 73 72 69 58 62 61 62 63 70 69 68 66 75 74 70 68 67 66 67 67
58 58 57 56 57 56 55 55 63 59 60 63 64 65 70 77 80 78 80 78 77 75 69 73 68 64 69 70 70 69 65 63 66 72 67 67 67 70 73 68 67 66 66 65 66
57 58 57 56 56 55 53 54 53 54 52 64 64 66 72 74 68 75 82 74 73 68 70 67 64 71 72 70 68 66 63 63 66 68 67 67 66 71 71 70 70 68 66 66 66
57 57 57 56 55 53 51 54 58 57 52 60 66 66 70 73 68 70 77 74 71 66 68 67 70 70 69 66 64 64 63 62 63 65 67 64 63 67 73 69 68 69 70 68 67
56 56 56 55 52 51 52 56 58 55 50 56 59 67 72 74 65 78 81 76 70 68 68 70 71 68 66 66 68 61 68 66 63 61 57 65 53 63 70 68 68 69 66 66 67
56 56 55 55 52 50 55 57 58 55 39 61 62 77 73 69 72 69 80 75 69 67 69 66 65 65 64 67 69 66 68 66 64 61 58 59 54 64 63 66 72 74 67 66 68
56 56 55 50 52 55 56 55 56 48 38 56 65 63 62 68 70 71 73 79 76 69 69 72 73 72 72 71 70 72 65 61 59 59 51 59 58 61 66 69 73 73 68 66 68
55 56 54 54 50 56 55 54 46 39 58 56 59 62 63 61 65 68 66 65 64 58 59 65 67 71 74 68 68 68 62 53 49 50 50 56 55 62 71 73 71 71 70 66 67
54 54 53 52 54 56 54 48 38 52 54 62 61 62 58 63 63 65 64 62 70 68 63 57 54 66 71 70 66 64 64 55 42 47 53 55 53 63 71 69 69 69 69 67 67
52 51 49 50 52 55 46 39 47 52 60 59 61 57 57 61 63 62 63 64 67 69 60 57 58 69 71 73 72 61 59 67 58 54 53 58 61 67 68 70 67 65 63 63 66
47 47 47 50 52 50 40 41 51 60 62 63 56 61 54 58 59 60 60 68 66 69 73 62 56 66 70 73 70 67 69 56 58 46 43 53 54 59 67 70 68 63 62 63 66
46 40 50 52 48 40 34 42 52 60 60 59 58 57 59 57 60 59 61 66 70 66 71 67 64 58 65 63 64 63 61 60 61 58 50 47 55 68 68 70 69 68 66 65 66
44 34 49 51 35 35 36 44 48 53 61 57 60 61 58 59 58 58 59 65 72 69 62 68 63 57 59 65 72 70 65 65 56 52 56 55 56 70 69 70 70 68 66 68 69
39 37 48 49 31 33 41 42 45 45 50 54 54 57 62 58 54 59 60 69 70 69 65 64 60 53 55 58 62 63 65 66 63 61 55 53 57 68 68 70 70 66 67 66 68
37 32 35 41 42 36 38 39 37 48 48 49 49 56 56 56 59 55 59 63 68 71 63 66 61 58 52 57 63 58 60 63 62 57 58 58 63 65 67 70 69 67 68 68 67
37 34 37 32 33 35 39 40 38 37 48 54 51 52 51 52 56 57 58 62 64 61 65 64 57 61 65 66 65 64 63 62 59 63 58 63 61 69 72 72 74 72 67 66 67
33 35 36 35 34 38 36 37 38 43 45 47 46 53 51 49 52 54 56 56 57 61 62 58 57 60 59 64 65 62 65 65 63 65 64 67 65 75 74 74 71 69 67 67 68
40 43 38 36 35 35 35 39 41 45 48 50 51 50 48 52 56 58 58 58 57 56 56 57 56 54 52 60 61 53 63 64 64 67 66 61 69 72 68 70 74 70 69 69 71

GFSSW_sfc_temp_015.txt.gz
Temp
61 61 60 60 60 60 60 60 60 61 61 62 62 62 62 62 62 78 85 91 90 72 75 96 96 97 98 94 97 96 80 77 81 82 84 91 88 94 95 91 91 92 90 91 93
60 60 60 60 60 60 60 60 60 60 61 61 61 61 61 61 78 87 92 81 73 75 91 92 90 94 90 91 93 86 79 81 89 89 85 89 91 92 89 88 87 88 91 89 91
60 60 60 60 60 59 59 59 60 60 60 60 60 61 61 65 81 92 75 77 73 79 98 98 97 93 87 92 90 87 77 86 87 90 91 89 89 92 88 84 89 86 90 89 90
60 60 60 59 59 59 59 59 59 60 60 60 60 60 61 76 74 91 75 74 74 92 96 96 93 88 84 84 92 82 87 87 88 91 90 88 91 87 88 89 93 92 93 92 88
60 60 59 59 59 59 58 59 59 59 59 59 60 60 71 76 80 95 76 76 87 87 89 91 89 88 83 87 89 83 84 88 92 92 91 92 86 87 88 93 94 93 91 90 89
60 60 59 59 59 59 58 58 58 58 58 59 60 60 67 65 92 97 93 90 91 88 89 92 91 93 88 87 85 88 89 89 90 90 90 85 86 85 89 91 90 90 89 88 88
59 59 59 59 59 59 59 58 58 58 59 60 61 67 71 71 96 99 96 94 96 92 87 93 95 91 89 84 92 90 82 86 87 88 86 89 80 82 90 91 88 86 88 89 89
58 58 59 59 59 59 59 58 58 58 59 61 62 72 67 90 97 92 96 94 96 98 94 96 95 91 89 92 88 83 83 75 86 87 87 84 73 87 92 89 86 88 89 88 88
58 58 58 58 59 59 58 57 58 60 61 62 67 72 71 88 85 93 97 91 93 94 96 97 94 85 87 80 78 79 71 74 78 88 85 82 76 87 91 89 86 87 88 87 86
58 58 57 58 58 58 57 57 62 62 64 74 80 69 77 78 90 92 96 94 88 88 85 85 84 79 80 78 66 71 73 76 75 82 83 80 79 86 89 88 87 87 87 87 85
58 58 57 57 58 57 59 71 71 67 73 72 74 73 84 88 91 89 93 89 88 83 73 80 75 70 75 79 80 79 77 75 80 85 81 78 78 83 87 88 87 87 87 86 85
57 57 57 57 57 57 62 63 74 68 64 75 77 80 85 87 78 85 92 80 78 72 78 76 69 80 82 82 79 78 75 75 80 84 80 77 76 82 85 86 87 87 87 86 85
56 56 56 57 56 58 64 69 78 76 64 72 79 78 81 86 78 81 87 82 77 74 75 72 77 83 81 79 76 76 74 74 74 80 81 76 73 78 85 87 89 89 89 89 85
55 55 55 56 53 69 68 77 78 75 59 68 75 79 83 83 74 87 91 84 80 74 77 77 85 81 79 77 80 71 81 78 75 72 66 79 62 74 81 82 85 87 88 87 85
55 55 55 55 58 64 70 76 77 70 46 78 80 91 86 76 81 80 92 84 75 77 78 75 79 79 76 78 82 76 83 79 76 71 70 71 66 73 81 78 81 85 88 87 86
55 55 55 60 64 67 72 74 70 54 46 70 79 74 76 77 78 87 81 87 86 80 81 80 89 85 83 85 84 84 79 78 76 72 60 69 68 69 76 78 81 85 87 87 86
55 55 56 63 59 68 66 65 49 48 71 69 71 75 75 72 73 78 74 73 71 66 68 77 80 86 87 79 83 81 73 61 57 58 57 73 68 71 80 83 83 83 86 86 85
54 54 58 65 70 65 58 53 41 58 64 77 76 75 70 76 73 74 73 69 76 76 73 68 65 80 86 80 76 76 72 63 50 55 63 73 62 73 83 85 86 86 85 86 83
52 55 60 64 68 62 46 36 47 60 70 70 74 69 69 75 73 72 73 71 76 78 69 69 70 84 84 85 83 75 68 78 67 69 65 68 73 79 82 83 84 84 82 81 82
48 50 54 66 65 54 37 36 53 65 69 73 64 70 65 71 70 69 71 77 75 80 83 78 67 81 83 85 84 80 81 66 69 53 52 64 66 70 74 79 82 81 80 80 82
45 42 60 66 57 43 31 41 52 63 68 60 62 63 70 71 73 71 72 78 81 80 82 80 75 74 81 74 73 75 73 73 72 69 58 56 65 79 78 81 80 83 83 82 82
45 40 65 62 39 39 35 48 51 57 65 61 61 60 62 71 72 71 71 77 86 84 74 80 75 68 72 82 83 80 75 74 65 60 68 67 67 83 82 84 84 84 85 85 84
43 48 59 56 34 39 49 49 51 53 56 56 57 60 62 60 59 72 74 85 86 82 77 79 71 63 68 74 78 74 77 77 74 71 65 62 66 85 84 83 85 85 86 85 84
42 38 46 46 46 40 44 46 45 56 55 54 53 60 56 56 65 65 73 81 86 83 73 75 72 66 64 67 74 68 73 76 72 65 65 68 72 77 80 81 84 85 86 86 84
52 43 50 35 38 40 42 43 44 46 55 57 53 54 55 54 63 66 73 77 81 75 78 76 66 71 74 78 76 73 73 75 71 71 66 70 72 78 82 83 85 87 87 85 84
40 44 47 42 44 42 41 42 44 48 52 50 51 55 55 54 60 58 66 72 72 77 76 76 65 71 68 75 76 71 74 75 75 75 74 74 73 85 87 88 87 87 86 85 84
51 54 43 39 38 38 39 44 46 49 51 53 55 54 52 57 59 59 67 67 72 71 71 70 68 65 61 72 72 66 73 74 75 77 76 69 77 84 83 84 86 87 87 86 86

GFSSW_sfc_temp_021.txt.gz
Temp
61 61 61 60 60 60 60 60 60 60 61 61 61 61 61 61 61 68 68 78 79 75 73 85 82 84 84 79 82 82 63 61 66 69 72 80 78 86 89 82 84 85 82 81 82
61 61 61 60 60 60 60 60 60 60 60 61 61 61 61 61 61 67 79 78 78 75 80 81 78 81 75 76 78 73 62 67 76 78 75 78 79 82 83 81 82 81 83 84 83
61 61 61 61 61 60 59 60 60 60 60 60 60 60 60 60 60 74 75 76 78 77 86 86 85 81 73 77 77 75 67 75 78 82 82 78 78 83 81 74 78 77 78 79 78
60 60 61 60 60 60 59 60 60 60 60 60 60 60 60 59 56 78 75 74 74 83 85 82 80 73 71 70 79 71 77 79 81 84 82 77 82 81 80 78 85 84 81 79 77
59 59 60 60 60 60 59 59 60 60 60 60 60 60 57 59 65 84 77 76 81 80 80 78 74 74 68 74 77 74 77 82 84 84 78 82 80 80 79 84 87 87 81 77 75
58 59 59 59 59 59 59 59 59 59 59 60 60 60 55 51 78 87 87 83 85 78 79 79 76 79 74 74 73 79 80 80 82 81 79 79 80 79 81 84 85 84 79 79 77
57 57 58 58 59 59 59 58 58 58 59 60 61 60 55 58 82 84 81 78 81 83 77 81 83 77 73 68 78 78 73 77 79 79 77 82 73 74 81 84 81 80 80 79 78
57 57 57 58 58 59 59 58 58 59 60 61 62 57 50 75 77 74 79 78 82 85 84 85 84 77 74 74 74 69 71 63 73 77 81 77 65 75 80 79 77 80 80 80 76
57 56 57 57 57 58 58 57 58 60 61 62 56 53 51 77 69 78 79 76 82 83 86 88 82 73 71 65 62 65 57 61 67 79 78 75 69 76 81 80 76 76 77 78 74
57 56 56 56 57 57 56 57 59 59 61 65 64 53 62 64 77 79 79 81 79 79 78 77 73 65 65 61 51 56 57 64 64 73 75 73 70 74 78 78 75 74 75 76 72
57 57 56 56 56 56 54 54 53 50 56 54 56 59 73 76 82 80 81 77 75 71 63 71 60 57 62 66 67 66 64 63 69 76 73 69 69 72 76 75 74 73 72 72 70
57 57 56 56 56 55 51 46 54 57 49 63 64 65 72 77 69 77 86 70 67 59 68 63 57 68 71 70 67 66 63 62 70 76 72 70 68 71 73 74 74 73 72 71 68
56 56 56 56 55 51 49 52 62 60 47 58 66 64 66 71 66 69 78 75 67 62 63 60 65 73 71 68 66 65 62 63 64 71 74 68 62 68 75 74 77 76 74 71 70
55 55 55 55 49 53 53 64 67 63 40 51 60 64 69 69 62 78 80 75 70 62 64 63 71 70 67 65 68 60 71 70 68 64 52 66 47 60 67 69 74 76 72 69 69
55 55 55 55 47 48 58 63 67 63 26 62 64 78 70 63 70 69 80 75 66 66 66 60 65 65 64 66 71 64 73 70 69 63 57 60 50 56 65 65 69 70 72 68 70
55 55 55 52 49 53 60 64 58 38 28 57 72 66 62 64 67 76 71 76 76 68 69 66 74 71 68 73 74 75 70 68 68 65 51 56 55 54 59 67 67 70 71 71 68
55 55 53 57 48 60 62 53 34 30 56 57 64 66 64 60 61 65 63 61 58 54 55 64 66 73 75 67 73 71 61 50 43 46 41 61 55 55 66 72 73 69 69 69 70
53 53 53 56 57 59 54 40 27 43 44 56 56 60 57 65 61 62 61 57 64 63 55 52 51 66 74 69 64 65 63 52 38 39 47 61 51 59 72 74 74 74 71 70 68
52 50 50 54 58 57 42 30 33 41 51 52 52 50 53 58 59 61 60 59 63 65 54 53 55 72 75 77 73 64 59 66 53 54 49 53 59 67 70 71 71 71 70 67 67
48 48 48 58 58 48 35 32 40 50 53 52 41 48 42 46 49 53 59 66 64 68 69 59 51 68 73 76 75 70 70 57 49 41 37 50 53 53 63 66 69 67 65 64 65
46 39 51 58 54 41 30 34 44 52 53 46 43 42 42 42 47 47 53 66 70 68 69 66 55 59 70 65 64 66 64 61 57 52 41 40 47 63 66 67 66 66 67 65 65
43 34 53 57 37 37 34 40 47 48 51 49 50 48 43 46 43 43 50 59 74 73 63 67 54 52 59 73 76 71 66 59 54 47 51 49 50 70 68 67 70 68 70 67 67
40 40 52 50 33 32 40 43 47 46 48 46 44 49 52 42 37 45 52 62 64 57 65 67 58 44 52 61 69 67 69 65 59 54 50 47 49 70 71 69 72 69 70 71 68
40 32 41 44 42 37 37 39 39 50 49 50 48 50 48 44 46 42 45 57 59 60 59 68 59 55 48 55 64 63 66 68 59 49 52 56 57 63 67 69 68 69 71 71 71
41 37 43 32 35 39 40 41 38 39 48 50 45 45 46 40 42 42 48 50 55 59 53 57 56 60 63 66 66 68 67 67 63 59 57 59 59 64 67 69 70 72 72 72 71
37 37 40 37 41 39 39 37 39 42 44 42 42 45 45 42 43 40 45 44 44 50 48 50 55 61 58 66 67 64 69 69 68 66 62 65 63 70 75 74 71 72 74 73 73
46 46 40 38 37 35 37 39 37 42 46 49 49 46 46 47 51 46 47 48 47 44 44 45 46 55 51 63 62 55 67 68 68 68 67 59 63 68 68 73 70 71 75 74 75

GFSSW_sfc_temp_024.txt.gz
Temp
61 61 61 61 60 60 60 60 60 60 61 61 61 61 61 61 60 64 65 76 74 73 73 81 79 80 79 74 76 73 56 54 58 61 67 73 69 82 84 79 81 81 76 79 80
61 61 61 61 61 60 60 60 60 60 61 61 61 61 60 60 57 60 74 75 74 73 79 78 76 77 68 70 72 65 54 61 70 71 69 74 71 76 77 77 77 75 77 79 79
60 60 60 61 61 60 60 60 60 60 61 61 60 60 60 59 59 67 76 75 75 75 81 81 79 74 65 68 70 66 61 71 72 76 78 77 77 79 76 72 75 73 74 74 74
59 59 60 60 60 60 59 60 60 60 61 60 60 60 60 57 54 75 76 74 73 79 79 76 72 65 62 62 73 61 71 74 75 78 77 75 81 77 77 76 82 79 77 75 74
58 58 59 59 59 59 59 59 59 59 59 59 60 60 55 53 60 80 77 78 78 78 75 74 68 66 61 66 69 66 71 76 78 78 77 79 76 76 76 80 82 81 77 76 74
57 58 58 58 58 58 58 58 58 58 58 59 60 60 51 44 72 79 80 80 82 76 75 74 71 74 64 67 66 72 73 74 77 77 77 74 77 75 79 81 80 77 75 76 74
57 57 57 57 58 58 58 58 58 58 59 60 61 60 49 51 72 77 71 70 76 79 76 78 79 72 68 65 72 71 64 69 73 75 74 78 70 71 78 79 77 75 75 74 75
57 57 57 57 57 58 58 58 57 58 59 60 61 57 46 64 67 68 72 72 77 77 77 81 77 69 66 67 68 63 60 55 69 73 76 71 63 75 77 75 74 75 76 76 74
57 57 57 57 57 57 57 56 57 58 59 60 56 50 44 67 63 70 74 70 79 79 77 84 74 66 64 60 54 56 52 56 62 72 72 68 65 73 77 75 73 74 73 74 75
57 56 56 57 57 56 56 56 56 58 58 61 60 47 54 60 71 75 74 74 71 72 71 71 64 60 57 53 47 51 51 57 59 69 68 65 65 72 79 76 73 73 71 71 70
57 56 56 56 56 56 52 47 48 47 49 47 50 52 68 71 77 75 76 69 69 65 60 65 56 52 58 61 63 61 57 56 64 71 67 65 67 71 72 70 70 70 70 70 66
56 56 56 56 56 55 48 42 49 51 42 56 57 57 66 71 63 70 77 64 61 55 63 57 54 63 67 64 61 60 56 57 65 70 65 65 66 72 71 70 71 72 69 66 62
55 55 56 55 55 48 45 50 58 55 43 50 58 57 59 65 59 63 72 66 60 55 59 56 61 68 65 62 59 59 57 58 58 65 67 63 60 65 71 72 74 73 71 65 65
55 55 55 55 48 46 48 59 58 61 34 44 54 59 62 63 57 70 74 69 63 56 59 58 67 65 62 60 63 55 66 65 62 58 49 63 47 57 65 68 70 71 65 63 66
55 55 55 55 45 42 52 55 58 52 24 55 58 70 65 58 65 64 74 68 60 61 59 55 61 61 59 61 67 60 67 64 63 58 51 58 48 54 61 63 67 68 66 61 65
55 55 55 53 47 50 53 53 49 34 25 48 60 57 55 58 62 69 65 71 70 63 63 61 68 67 64 69 69 70 63 61 60 55 44 56 51 57 57 64 65 65 65 63 62
54 55 53 54 45 49 51 46 33 27 50 48 49 53 54 53 55 60 58 56 53 49 51 60 61 67 70 62 67 64 54 42 38 41 42 56 52 59 63 66 69 65 62 63 64
53 52 50 52 48 50 45 37 27 40 42 52 50 51 49 50 51 57 55 53 59 59 53 50 47 62 69 64 59 60 57 45 35 36 43 57 49 58 67 70 70 68 66 65 64
51 44 43 47 52 47 41 29 31 39 47 44 46 43 43 46 46 50 53 53 59 59 49 50 51 66 69 70 67 58 52 60 48 48 44 49 56 63 64 64 66 64 65 63 62
46 41 42 50 50 46 35 33 37 45 46 47 36 43 36 41 41 44 46 59 58 64 60 53 46 63 67 70 69 63 64 50 44 39 36 45 50 51 58 61 63 62 61 63 61
42 36 49 52 50 40 27 31 40 49 49 43 40 38 40 41 42 40 43 54 57 61 65 59 50 53 64 59 58 56 58 55 54 48 40 39 48 57 62 63 62 64 64 62 62
38 31 49 52 37 36 32 39 44 46 49 45 46 44 42 43 39 40 42 48 55 55 52 62 49 47 53 62 70 66 57 60 51 45 48 46 49 63 61 65 67 65 66 64 65
36 35 46 49 31 32 37 39 43 43 44 44 43 46 47 43 36 42 45 54 54 52 49 51 53 41 45 52 60 61 63 62 54 49 47 48 49 65 65 67 67 64 64 65 64
37 30 38 41 39 34 35 36 36 48 45 47 44 46 44 41 46 41 42 50 54 52 54 50 47 51 46 52 58 54 62 62 59 47 47 57 53 59 60 62 62 64 65 65 65
35 32 39 30 33 34 33 37 35 36 45 45 41 42 41 37 41 42 46 48 50 53 49 43 40 55 58 60 59 60 62 63 60 58 56 55 57 60 62 63 65 66 66 66 65
30 35 40 34 36 34 34 34 36 36 39 38 37 42 43 37 39 40 45 44 41 46 43 43 36 50 53 61 61 58 61 65 65 61 58 59 56 65 70 70 68 68 68 67 68
40 41 38 36 31 27 31 38 35 37 40 44 44 38 36 43 50 49 50 49 46 42 40 38 38 38 47 58 58 51 59 60 65 67 61 55 60 64 64 66 67 67 70 70 70

GFSSW_sfc_temp_027.txt.gz
Temp
60 60 60 60 60 60 60 60 60 60 61 61 61 61 61 61 60 62 65 75 72 71 74 77 77 77 74 70 72 68 53 50 55 58 63 67 66 74 80 75 77 78 75 76 76
60 60 60 60 60 60 60 60 60 60 60 61 60 60 60 60 55 58 73 74 74 73 75 75 72 72 66 67 68 63 51 56 68 65 64 68 67 71 74 75 74 75 75 74 76
59 59 59 59 60 59 59 60 60 60 60 60 60 60 60 59 57 66 75 73 73 74 79 79 77 71 62 65 65 61 60 68 69 70 68 69 72 78 73 69 74 73 73 71 70
58 58 59 59 59 59 59 59 59 60 60 60 60 60 60 54 52 72 76 74 73 75 75 75 71 63 60 60 68 58 66 71 72 75 70 69 74 73 76 77 83 78 75 71 71
58 58 58 58 58 58 58 58 59 59 59 59 59 60 54 50 57 77 76 78 75 73 72 71 66 64 60 61 64 61 66 71 73 72 74 76 71 73 75 81 81 78 73 72 72
57 57 57 57 57 58 58 57 57 58 58 59 59 60 49 39 68 73 76 74 76 71 71 71 69 71 62 63 60 65 66 67 70 70 73 71 72 73 77 80 76 73 71 73 72
57 57 57 57 57 57 57 57 57 57 58 59 60 59 51 48 67 70 67 65 71 75 72 75 77 71 65 61 67 65 61 65 67 71 69 75 67 69 78 77 73 71 73 73 72
57 57 57 57 57 58 58 57 57 57 58 59 60 57 46 62 63 61 64 66 72 72 72 77 77 67 62 62 64 59 56 51 66 70 72 69 59 72 77 72 72 71 72 72 71
57 56 56 57 57 57 57 56 57 58 59 59 55 51 44 63 56 62 65 66 74 72 72 81 70 63 61 56 49 50 50 52 58 68 66 65 61 70 73 71 70 71 70 73 72
57 56 56 56 57 56 56 56 56 56 56 59 57 46 50 56 66 70 68 68 69 69 67 65 61 55 52 49 45 49 46 52 55 64 64 62 61 69 71 71 69 70 71 70 68
57 56 56 56 56 56 54 46 47 46 48 44 47 49 61 64 73 71 70 64 66 62 55 59 52 50 57 59 60 58 53 51 59 65 62 59 60 64 70 68 68 66 66 68 65
56 56 56 56 55 55 48 41 49 52 40 52 52 53 58 60 53 66 73 59 57 52 58 54 51 61 64 62 58 56 52 52 60 64 61 59 59 66 68 68 69 70 67 64 60
55 55 55 55 55 48 42 47 55 56 39 47 53 52 56 59 53 58 69 64 58 53 56 54 60 66 62 59 55 55 52 54 54 60 62 58 56 61 69 67 69 69 69 68 64
55 55 55 55 48 44 44 53 55 56 33 41 48 53 57 60 53 65 71 65 60 53 57 56 64 62 59 56 58 51 61 60 58 52 46 57 41 53 60 64 66 68 67 65 60
54 55 55 55 49 47 49 50 54 52 22 52 54 65 60 53 60 61 70 65 57 57 57 52 58 58 56 58 62 57 63 58 58 52 48 52 45 50 57 60 64 66 67 60 59
54 55 55 53 48 50 50 49 47 32 24 46 54 51 51 53 55 63 61 67 65 57 58 57 65 65 61 65 65 66 57 55 55 49 42 52 47 48 55 60 63 66 64 59 58
54 54 52 54 44 47 47 42 32 25 48 43 44 49 49 46 51 53 53 52 50 45 46 53 56 62 67 58 60 60 49 38 34 36 37 53 47 54 60 63 66 66 61 58 59
53 52 52 51 47 47 42 35 23 39 40 49 46 48 42 46 45 48 50 47 57 54 49 45 42 57 65 61 56 55 53 38 31 33 41 52 44 52 64 68 68 66 60 60 58
51 43 42 45 48 47 41 29 28 37 43 41 44 41 42 44 45 45 44 48 53 57 46 46 48 62 66 65 64 55 49 57 45 44 40 45 52 60 61 62 61 59 59 57 58
46 42 44 49 48 46 35 30 34 44 45 44 34 41 34 40 41 39 40 48 48 56 55 50 43 59 64 66 64 56 60 46 43 34 34 43 46 50 56 59 59 57 57 57 56
41 35 44 52 49 39 29 29 38 46 47 40 37 36 39 38 40 39 40 49 49 49 51 50 46 49 59 55 54 52 52 48 51 44 36 35 43 55 60 59 59 58 59 57 57
37 29 44 51 36 34 30 37 43 42 46 43 43 41 40 42 39 40 40 46 53 51 42 46 46 42 49 59 66 62 56 52 48 40 45 42 47 60 62 63 64 64 60 58 59
37 38 45 48 30 32 36 37 41 41 41 41 41 43 45 40 35 40 43 51 53 49 43 45 41 40 42 49 54 56 58 60 50 45 42 46 49 61 59 60 64 60 60 60 58
37 31 35 37 35 34 34 34 34 45 42 43 41 42 40 39 44 39 42 49 53 51 53 47 38 44 42 47 53 51 57 55 56 46 48 51 50 56 57 59 59 59 60 60 60
33 30 37 28 32 33 32 35 34 33 41 42 38 39 37 35 39 38 44 46 51 52 49 40 32 41 50 57 56 55 56 59 54 55 51 55 53 58 59 61 61 61 60 60 60
31 36 37 35 35 32 33 35 35 35 36 36 35 39 38 33 39 36 39 41 42 46 44 39 32 39 44 55 56 54 56 59 60 59 58 55 54 62 65 63 63 63 63 62 62
41 42 38 36 35 27 29 35 35 40 42 41 40 38 36 39 45 44 47 49 48 44 41 37 35 36 34 52 52 46 55 56 58 62 62 54 60 60 58 64 63 63 65 65 65

GFSSW_sfc_temp_030.txt.gz
Temp
60 60 60 60 60 60 60 60 60 60 60 61 61 61 60 60 60 60 61 74 72 71 74 75 75 75 73 68 69 65 52 49 56 58 61 64 63 69 75 73 73 76 74 74 71
59 59 59 59 59 59 59 59 60 60 60 60 60 60 60 60 53 55 72 73 73 73 75 74 70 72 63 64 65 61 50 55 64 63 63 64 63 67 70 70 73 74 76 73 70
59 59 59 58 59 58 58 59 59 60 60 60 60 60 60 58 53 62 75 74 73 74 77 78 76 69 61 61 63 59 57 66 65 68 66 65 68 70 67 66 72 71 76 70 68
58 59 59 59 58 58 58 58 59 59 60 59 59 60 60 53 49 67 75 73 73 74 75 73 71 62 57 58 65 55 63 69 69 71 64 66 69 69 71 72 78 79 75 70 68
58 58 58 58 58 58 58 58 58 58 58 58 59 60 56 46 52 74 75 74 73 71 71 70 66 64 57 58 62 59 64 67 68 67 66 72 68 69 70 78 80 78 74 70 69
57 58 58 58 58 58 58 58 57 57 57 58 59 59 52 41 64 69 66 69 73 68 67 69 68 68 59 60 59 61 63 64 64 66 69 67 67 66 71 78 76 75 72 70 69
57 57 57 57 57 58 58 58 57 57 58 58 59 58 49 47 63 65 62 59 66 71 69 71 73 68 63 57 63 62 55 61 64 66 64 71 64 63 74 75 72 73 72 70 70
57 57 57 57 57 57 57 57 57 58 59 58 59 56 43 60 62 59 62 60 66 66 70 74 74 64 59 61 61 55 53 49 62 67 66 67 55 66 75 70 70 70 71 69 68
57 56 56 57 57 57 57 56 57 58 58 58 54 51 41 61 56 60 61 58 69 67 68 76 71 61 58 53 47 48 48 49 55 66 62 61 57 67 69 68 68 71 70 69 70
57 56 56 56 56 56 55 56 57 56 56 59 57 44 48 53 61 65 62 62 64 63 62 62 58 53 49 48 44 46 45 52 54 61 58 57 57 64 69 67 67 67 69 68 67
57 56 56 56 56 55 53 45 45 43 46 42 45 45 52 62 66 66 65 59 62 58 51 55 50 47 54 58 58 59 53 50 61 62 57 55 55 62 65 63 63 64 64 64 63
56 56 56 55 55 55 51 39 48 48 38 50 50 50 55 58 51 58 67 57 54 50 55 50 48 57 60 60 57 55 53 52 59 60 56 55 55 62 64 64 66 68 67 65 61
55 55 55 55 54 47 41 45 52 53 38 44 51 49 51 53 47 52 62 60 55 50 53 51 56 62 59 57 54 53 52 54 54 56 57 55 52 58 64 64 66 66 66 65 64
55 55 55 55 47 43 43 50 49 54 32 39 44 49 53 53 47 61 66 61 57 50 53 52 62 60 57 55 57 49 59 58 55 49 41 53 38 53 59 60 63 66 64 64 60
54 55 55 55 46 46 48 47 49 45 20 48 49 61 56 50 54 55 65 61 53 54 53 48 55 55 54 56 59 54 62 58 54 47 42 47 41 49 54 57 61 65 66 63 57
55 55 55 52 49 48 48 47 44 31 23 43 52 49 47 50 52 58 55 60 62 55 56 55 63 62 60 63 63 64 57 52 48 44 35 47 45 44 51 57 62 64 64 59 55
54 54 52 53 45 45 45 41 30 22 45 40 41 48 48 45 48 50 49 47 47 41 42 50 53 57 62 54 58 57 47 34 32 32 33 49 44 51 56 60 64 65 63 56 56
53 52 48 51 45 47 41 33 23 36 37 46 44 48 43 45 45 46 45 42 51 48 45 43 39 55 60 56 50 53 49 38 31 31 39 49 41 48 61 68 66 64 62 56 54
50 42 42 48 46 49 39 27 26 34 41 40 42 39 39 44 43 43 40 41 47 51 41 42 44 59 63 64 62 50 46 51 42 43 37 42 48 57 61 61 62 61 57 54 53
43 44 39 47 46 45 35 29 32 41 43 42 32 39 33 38 39 39 39 46 45 49 47 46 40 57 60 64 63 57 58 43 41 33 31 39 43 48 56 62 60 56 55 53 53
37 34 43 51 48 39 24 28 36 45 45 39 35 34 37 37 40 39 39 42 45 47 48 45 43 46 56 53 51 48 48 44 47 39 33 33 41 53 59 60 60 58 57 53 54
39 27 43 50 36 35 27 35 41 41 44 41 40 38 37 40 38 38 39 40 48 46 39 43 39 40 48 55 63 60 50 47 45 36 41 40 42 58 59 61 60 60 58 55 55
36 34 45 45 30 28 34 37 40 39 40 39 38 43 42 38 33 40 42 48 46 43 40 44 36 34 40 47 52 54 54 54 45 42 44 38 42 59 58 60 60 58 57 56 55
34 28 33 38 36 34 32 31 34 44 38 41 39 40 36 36 42 38 41 47 50 48 49 48 35 34 36 43 47 49 54 55 47 38 42 49 49 57 59 60 57 57 57 55 57
32 28 34 30 31 33 34 33 33 33 39 38 36 38 35 31 36 37 41 42 48 50 44 42 30 37 40 46 48 49 53 55 51 52 45 49 53 56 60 60 58 57 56 56 56
29 35 38 33 37 34 31 33 33 34 37 35 34 37 36 31 36 34 39 39 39 44 40 40 30 36 36 48 49 47 51 55 55 55 53 53 51 60 63 60 58 60 59 59 59
38 43 38 36 35 30 27 33 33 36 39 39 39 35 34 37 41 42 44 44 42 40 37 36 33 31 30 41 43 40 50 52 53 58 56 50 59 57 57 60 59 58 62 62 62

GFSSW_sfc_temp_033.txt.gz
Temp
60 60 59 59 59 59 59 60 60 60 60 61 61 61 61 61 60 67 68 75 75 72 72 77 78 80 80 77 78 76 68 64 67 66 74 79 79 81 85 82 84 87 87 90 84
60 60 59 59 59 59 59 59 59 60 60 60 61 60 60 60 59 61 73 73 73 73 80 78 75 77 75 75 76 73 67 68 76 77 76 76 76 77 78 80 82 84 88 88 83
59 60 60 59 59 59 59 58 59 59 60 60 60 60 60 61 60 70 74 72 72 75 84 83 81 77 73 74 74 73 66 74 76 77 77 77 77 81 77 76 83 80 84 88 86
59 59 59 59 59 59 59 59 59 59 59 59 59 59 60 59 58 74 72 72 72 76 78 78 77 71 71 68 74 67 72 75 78 80 76 75 79 75 78 78 84 85 85 86 85
58 58 58 58 58 58 58 58 59 59 58 58 59 59 58 51 59 74 71 71 79 74 73 74 73 73 69 71 73 68 72 76 77 77 76 77 74 74 76 82 85 86 85 84 85
57 58 58 58 58 58 58 58 58 58 58 59 58 59 52 41 67 70 69 69 76 75 73 75 74 77 74 71 70 75 72 74 76 76 76 73 75 76 78 83 83 83 83 86 86
57 57 57 57 58 58 58 58 57 57 58 59 59 58 50 48 67 69 68 64 67 68 71 77 78 73 73 68 74 73 67 72 72 74 72 75 69 72 81 83 80 80 82 85 86
57 56 57 57 57 58 58 57 57 57 58 59 60 56 46 63 67 63 65 63 67 69 68 75 78 74 70 72 68 67 66 62 73 72 72 72 64 76 81 79 78 80 81 82 83
57 56 56 56 57 57 57 56 57 58 59 59 54 51 45 63 58 64 65 61 69 68 71 76 75 69 68 63 61 62 59 59 64 72 73 70 67 76 79 77 75 77 79 81 83
57 56 56 56 56 56 55 56 57 58 59 60 59 47 54 56 63 67 68 64 62 66 64 65 67 63 63 61 51 55 54 59 60 72 69 68 67 72 77 75 75 77 78 78 79
57 56 56 56 56 55 54 53 54 50 52 49 50 50 55 64 68 65 66 60 61 63 58 63 58 55 59 62 65 65 61 61 67 71 67 67 67 70 75 75 74 76 76 76 77
56 56 56 56 55 54 54 48 48 48 40 53 52 53 58 62 52 61 68 57 54 54 61 56 54 63 67 66 61 61 60 61 66 70 66 66 65 70 72 74 76 76 76 77 79
55 55 55 55 55 52 49 49 56 54 41 48 53 52 53 57 48 54 63 60 55 53 57 56 61 65 62 61 58 59 58 60 60 64 66 63 62 68 74 75 77 78 77 78 77
55 55 55 55 51 51 49 55 56 53 35 43 47 53 56 56 48 59 65 62 58 53 57 59 67 63 60 58 60 54 64 63 60 57 54 64 51 63 69 70 74 76 79 79 76
55 55 55 55 49 49 53 56 57 51 25 50 50 64 60 53 56 59 64 61 54 56 58 54 58 59 57 59 63 59 67 61 59 57 56 59 53 62 65 65 71 77 79 78 72
55 55 54 53 53 55 56 55 52 34 24 44 52 51 52 54 55 59 56 62 64 57 60 61 67 64 64 66 65 67 63 60 59 58 47 56 55 58 65 67 72 78 80 72 69
54 53 52 54 47 53 54 50 33 26 46 40 43 49 50 47 49 52 50 48 49 45 47 55 58 64 67 62 65 63 58 47 44 45 46 59 54 56 68 71 73 76 79 73 69
52 51 50 54 53 53 49 38 24 37 39 47 45 48 44 46 43 46 45 45 52 54 52 47 45 58 65 62 59 59 58 52 41 44 49 57 50 58 71 75 77 78 78 72 68
50 50 50 53 52 51 41 29 33 36 41 40 43 41 40 45 43 43 42 38 49 54 45 48 50 63 64 67 65 58 54 65 55 54 52 55 57 66 70 71 72 75 74 70 67
46 46 49 53 52 46 35 32 36 43 44 43 34 40 35 40 40 40 37 39 38 48 51 50 46 60 63 67 67 62 65 50 55 44 41 50 54 59 66 68 73 73 71 68 67
44 42 52 53 50 41 31 34 39 46 46 40 38 36 38 38 41 40 40 43 40 42 50 51 50 54 62 58 58 58 56 59 59 56 48 45 54 68 70 71 73 76 73 67 67
44 37 51 50 36 36 34 38 42 43 47 43 43 41 39 40 38 39 40 42 46 43 37 47 45 48 54 65 68 64 60 59 52 47 54 55 56 68 70 71 73 74 70 69 69
38 40 50 49 31 32 38 39 41 41 41 38 40 43 44 40 34 40 43 50 49 43 36 40 45 43 49 56 62 59 62 62 61 58 52 50 55 70 70 71 73 72 69 67 68
40 34 41 43 40 34 32 36 36 46 42 40 41 45 41 39 43 39 41 49 50 49 47 42 40 43 46 49 56 54 58 61 59 54 54 55 59 70 71 72 73 71 70 68 69
40 36 40 31 36 35 35 35 35 35 42 43 39 38 36 35 38 39 43 45 48 50 46 40 35 42 46 48 49 51 58 59 56 58 54 56 58 68 72 73 74 72 70 68 69
38 38 43 37 38 36 35 36 36 36 36 37 37 41 40 34 38 36 40 40 36 43 43 41 35 41 43 52 52 50 55 60 60 61 60 60 60 72 75 74 71 71 69 70 70
43 46 40 38 38 35 35 36 35 37 42 43 40 37 38 42 46 46 45 45 44 38 37 41 39 38 42 48 49 47 55 57 60 63 63 58 64 72 71 73 75 73 71 72 72

GFSSW_sfc_temp_036.txt.gz
Temp
60 60 60 60 60 59 59 59 59 60 61 61 61 61 61 61 61 77 74 79 81 71 73 86 85 87 90 87 89 90 77 73 77 79 82 89 87 90 92 90 93 95 93 97 98
60 60 60 60 60 60 59 59 59 59 60 60 60 60 60 60 68 72 79 74 73 74 86 84 83 85 83 84 85 81 76 77 86 87 85 88 86 88 85 87 89 93 97 97 98
59 60 60 60 59 59 59 59 60 59 59 59 59 60 60 63 68 79 71 72 72 75 86 90 90 86 81 86 84 82 76 85 87 89 89 86 86 92 86 83 90 90 92 96 96
59 59 59 59 59 58 58 59 59 60 60 59 59 59 60 67 64 79 71 71 73 79 83 85 83 81 79 78 85 77 84 85 88 91 88 84 88 85 86 87 93 95 94 95 94
58 58 58 59 59 59 58 58 59 59 59 59 59 59 63 61 69 84 72 76 84 80 80 82 79 81 77 81 83 79 83 86 87 89 88 87 84 84 86 91 94 95 94 93 94
58 58 58 58 58 58 58 58 58 58 58 59 59 59 60 52 79 80 78 79 81 82 80 84 82 86 82 82 81 84 84 84 86 86 86 82 83 86 87 91 91 92 92 94 94
58 57 57 57 58 58 58 58 57 57 58 59 60 61 57 59 77 78 77 76 78 79 79 84 87 81 82 77 84 83 76 81 81 84 82 85 77 79 88 90 90 90 90 92 93
57 57 57 57 57 58 58 57 57 57 58 59 60 59 53 74 78 73 76 74 78 77 77 83 85 80 78 82 78 75 76 69 80 81 82 81 70 84 90 90 87 88 89 90 92
57 56 56 57 57 57 57 56 57 59 59 60 61 57 57 69 65 73 75 68 77 77 77 81 81 75 76 69 68 72 65 68 73 83 81 77 72 84 90 88 84 86 88 89 90
57 56 56 56 57 56 56 56 59 58 63 66 66 54 63 64 69 72 78 72 68 73 69 71 74 69 70 68 59 64 65 69 70 79 77 76 75 83 86 85 84 86 87 87 89
57 56 56 56 56 56 58 67 63 60 61 59 61 58 65 72 74 71 73 68 67 66 61 68 64 61 67 69 71 72 71 69 74 80 76 75 76 81 85 84 84 85 86 87 88
56 56 56 56 56 55 62 58 55 56 47 61 62 62 66 69 58 65 75 62 60 57 65 65 59 70 73 73 70 69 67 68 75 79 77 74 73 80 83 83 84 85 86 86 89
55 55 56 56 55 58 60 57 65 63 48 56 63 61 63 65 57 60 68 66 61 58 63 62 66 73 71 69 67 67 65 66 67 75 77 72 68 72 81 84 86 86 88 90 89
55 55 55 54 54 62 59 63 66 63 42 52 55 61 64 63 54 68 70 66 63 57 62 64 73 70 68 67 70 62 72 69 67 65 59 73 59 70 77 78 82 84 86 89 90
55 55 55 54 57 56 61 66 66 59 31 54 56 71 66 59 61 63 72 65 57 60 63 60 65 67 66 67 72 67 72 70 68 64 64 65 61 67 75 72 78 83 86 89 87
55 55 54 61 58 62 66 64 60 38 31 49 58 56 57 59 59 63 65 67 66 61 64 64 74 71 71 74 73 74 68 69 68 65 54 62 61 63 70 74 80 85 87 89 84
54 54 56 63 54 63 63 57 38 34 52 46 48 54 55 54 53 55 54 55 52 47 50 60 63 70 74 69 72 70 63 54 50 52 50 66 62 62 75 80 82 83 86 86 83
52 51 53 63 61 59 57 44 32 43 44 52 51 52 49 53 52 50 49 44 59 58 55 50 49 63 71 68 65 65 64 57 46 50 56 66 57 66 78 82 84 86 88 86 83
50 64 63 62 63 60 48 36 39 42 47 45 48 46 48 51 50 49 44 38 42 58 51 52 54 69 70 73 74 65 61 72 63 65 59 65 67 71 77 79 83 84 85 83 81
59 61 58 62 62 56 43 37 43 49 50 49 40 46 41 46 46 46 44 40 40 50 57 54 47 66 68 73 74 70 72 59 63 49 48 60 61 61 73 77 81 82 83 84 80
58 55 60 61 52 41 34 41 45 52 51 44 43 43 44 42 47 46 44 44 39 46 53 55 51 58 66 63 64 66 64 66 66 64 53 52 58 72 76 80 80 84 85 81 79
56 46 62 62 43 42 39 42 46 48 49 45 48 45 43 46 45 45 43 44 47 48 42 51 51 49 59 70 74 71 67 65 59 54 63 62 61 74 79 79 83 86 86 82 82
52 54 63 59 38 38 41 45 48 46 46 43 44 48 50 45 40 46 47 48 50 46 39 44 49 45 53 64 68 65 68 68 68 67 58 57 60 78 80 80 81 82 81 80 81
51 41 54 55 49 37 36 42 43 52 48 48 44 49 46 45 50 44 47 51 49 48 46 47 39 49 51 57 64 60 65 68 65 59 62 62 63 72 78 80 80 80 79 80 80
52 45 47 38 41 40 42 41 43 41 49 51 45 45 41 38 44 45 48 49 49 47 48 46 42 51 54 56 56 60 64 66 63 65 61 66 65 70 80 81 79 81 80 79 81
44 42 49 42 43 43 42 43 42 41 40 42 43 44 43 38 41 41 46 48 40 38 41 48 40 48 50 57 57 55 61 66 66 67 66 67 66 75 80 84 82 80 81 80 81
51 51 43 42 41 38 42 41 39 41 45 48 44 40 40 43 46 49 50 51 48 40 38 42 44 45 46 57 57 51 59 62 66 69 68 62 70 77 77 78 79 82 81 81 83

GFSSW_sfc_temp_042.txt.gz
Temp
60 61 60 60 60 60 60 60 60 60 60 61 61 61 60 60 60 71 68 81 84 73 73 88 88 90 91 85 88 88 72 69 73 76 81 93 90 97 100 93 96 98 96 99 103
60 60 60 60 60 60 60 60 60 60 60 60 60 60 60 60 61 66 78 77 76 74 85 83 81 84 82 83 84 79 71 72 81 84 84 90 92 93 91 90 90 92 99 102 103
59 59 60 60 60 59 59 59 60 60 60 60 60 60 60 61 64 78 73 75 74 78 88 88 89 85 79 84 82 80 73 80 83 87 90 89 90 95 90 85 89 89 94 98 99
59 60 59 59 59 59 59 59 59 60 60 60 59 60 60 62 61 80 74 74 74 85 84 82 81 79 77 76 83 75 81 83 85 88 88 86 91 89 91 90 95 96 98 98 96
58 59 58 58 58 58 58 58 59 59 59 59 59 60 61 64 68 84 74 76 84 81 78 77 75 76 73 79 81 79 81 85 87 89 88 90 87 88 89 95 98 99 97 96 95
58 58 58 58 58 58 58 58 58 58 58 59 59 59 58 51 81 88 87 87 85 84 82 81 78 81 78 78 78 83 83 84 87 88 89 85 87 88 89 95 94 95 94 96 96
58 58 58 58 58 58 58 58 57 58 58 59 60 62 57 59 81 84 84 83 85 84 80 86 87 80 81 75 84 83 77 82 85 86 85 88 81 82 91 94 91 92 94 95 96
57 57 57 57 58 58 58 58 57 58 59 60 60 62 53 76 82 79 81 79 83 84 82 84 86 81 79 82 80 76 77 70 80 84 86 84 71 84 91 90 88 91 93 94 94
57 57 56 57 57 58 57 57 58 59 61 61 60 60 57 78 71 78 81 76 80 83 83 84 81 74 76 70 68 72 65 67 72 83 82 81 74 85 90 89 87 88 90 92 93
57 56 56 56 57 57 56 56 59 61 67 71 69 60 68 66 77 79 83 80 74 74 73 73 72 65 68 67 56 61 63 68 68 78 81 78 77 84 88 89 87 88 89 89 90
57 56 56 56 56 56 57 65 68 63 64 62 65 62 68 76 81 76 80 77 74 69 61 69 61 58 63 68 71 70 69 67 74 80 77 75 76 81 86 87 86 87 86 87 88
56 56 56 56 56 56 58 61 66 67 54 66 67 67 72 74 65 72 79 67 65 58 64 62 57 66 70 71 69 69 67 67 74 80 78 76 75 81 84 85 87 86 86 87 88
55 55 56 55 55 58 64 68 75 72 54 59 65 66 69 73 64 66 72 68 61 59 61 57 63 70 68 66 66 67 65 66 67 75 78 74 71 75 83 86 87 88 89 89 87
55 55 55 55 54 67 65 74 76 73 45 56 63 67 71 71 63 75 76 69 63 57 61 61 68 66 66 64 67 62 73 72 70 67 61 74 58 70 76 78 83 85 87 87 88
55 55 54 54 60 64 69 74 74 65 29 60 60 76 72 65 65 68 77 70 58 59 60 56 61 62 61 66 70 65 74 72 71 67 66 66 61 67 76 74 79 83 87 87 89
55 55 54 64 64 69 72 70 64 38 28 47 55 58 57 60 58 67 67 71 70 61 62 60 69 67 67 70 71 75 70 70 70 68 56 64 62 63 69 74 78 84 87 88 90
54 54 54 65 61 73 69 61 36 29 48 45 50 58 57 57 60 61 58 57 53 45 48 57 59 66 70 64 70 69 64 53 51 53 52 67 63 65 75 80 82 83 85 88 90
53 52 61 70 73 71 60 44 28 47 48 57 55 56 52 57 58 59 56 52 60 56 47 41 44 60 67 64 62 64 63 56 44 48 55 66 58 66 79 84 86 87 87 89 89
51 67 65 71 72 68 52 34 43 48 54 50 52 45 48 54 53 54 54 52 56 54 40 40 45 63 67 69 68 63 59 69 60 63 58 65 70 75 80 82 84 85 85 86 83
58 62 68 72 69 62 48 41 49 56 56 53 41 40 41 47 44 46 49 52 53 56 53 46 38 56 62 69 69 66 72 58 62 47 47 60 63 67 74 77 81 81 83 85 83
59 59 68 73 68 53 39 45 53 59 59 51 46 45 45 42 47 45 46 53 54 54 56 50 43 47 58 59 60 63 62 65 65 63 53 51 60 77 76 80 80 82 84 85 82
60 52 70 72 49 48 45 51 53 57 61 56 55 51 42 47 44 44 47 48 57 56 49 52 39 40 49 63 70 69 64 64 58 54 62 61 63 81 81 83 83 84 86 86 84
57 61 70 66 41 42 48 52 56 55 53 53 52 55 54 45 38 43 46 54 57 54 49 50 43 38 45 54 61 58 66 68 66 66 59 57 62 81 82 82 85 84 87 83 83
56 48 58 61 54 43 43 46 49 57 55 55 52 54 40 46 51 44 46 45 51 55 50 50 43 41 36 43 42 45 59 67 65 59 61 64 67 74 78 80 82 84 82 83 83
58 51 56 43 46 47 45 45 45 46 54 54 49 51 46 41 43 45 48 46 45 46 51 45 35 42 45 47 43 41 48 63 64 67 61 66 69 74 79 81 82 83 83 81 82
52 50 54 47 50 45 43 43 44 47 47 46 45 48 48 42 43 39 46 47 45 49 48 45 35 42 40 47 44 40 49 57 69 69 70 70 70 73 77 78 81 82 82 81 81
56 57 50 45 47 40 39 40 41 47 49 51 50 47 45 49 52 52 53 53 52 48 47 42 38 37 38 47 40 38 51 57 66 73 72 66 72 75 70 79 81 81 82 82 83

GFSSW_sfc_temp_045.txt.gz
Temp
60 60 60 60 60 60 60 60 60 60 60 61 61 61 60 60 60 61 59 71 73 74 71 82 80 80 80 75 78 79 57 55 62 67 73 83 79 90 94 88 88 88 86 89 91
60 60 60 60 60 60 59 59 60 60 60 60 60 60 60 60 55 55 69 74 75 75 77 77 75 79 72 75 75 69 59 62 72 76 75 80 82 85 86 84 84 86 92 94 94
59 59 59 59 59 59 59 59 59 60 60 60 60 60 59 59 55 66 73 73 73 75 81 82 80 78 69 73 74 71 63 71 75 79 82 80 82 88 84 80 82 82 87 88 89
59 59 59 59 59 59 59 59 59 59 59 59 59 59 60 56 51 71 74 73 73 77 78 76 73 68 66 66 75 67 73 75 77 80 80 78 84 82 83 82 89 90 91 88 86
58 59 59 59 59 58 58 58 59 59 59 59 59 59 55 51 54 76 75 76 79 79 75 73 68 65 61 69 72 69 73 77 79 79 80 83 80 80 81 88 90 91 89 86 84
58 58 58 58 58 58 58 58 57 57 58 59 59 59 51 40 68 75 78 78 81 76 75 73 67 71 65 67 67 73 75 75 78 77 80 78 79 81 84 87 88 89 88 85 84
57 57 57 57 57 58 58 57 57 58 58 59 60 59 50 47 69 72 70 68 73 77 75 78 77 73 70 65 73 73 67 72 75 77 76 81 74 76 84 87 85 86 87 85 85
57 57 57 57 57 58 58 57 57 57 59 60 61 56 44 66 68 65 68 68 74 76 75 77 76 68 64 68 70 66 66 58 70 75 78 78 65 77 84 83 81 82 86 86 82
57 57 56 57 57 57 57 56 57 59 60 61 55 50 46 71 63 69 71 69 72 76 75 80 73 63 64 56 55 59 53 57 64 75 75 73 67 77 82 82 80 82 83 85 82
57 56 56 56 57 56 55 56 59 60 62 65 63 50 58 61 73 75 75 74 71 70 67 67 61 56 55 52 44 51 54 59 59 68 72 69 69 76 80 81 80 82 82 82 79
57 56 56 56 56 55 53 51 56 52 55 55 58 56 62 71 76 73 77 73 70 63 52 58 51 48 53 57 59 61 59 58 64 71 68 67 68 72 77 75 77 79 76 74 76
56 56 56 55 55 55 51 49 61 59 48 61 61 61 67 69 59 65 73 61 59 51 57 52 47 57 62 61 59 58 56 57 65 71 68 67 66 73 76 77 79 79 74 75 75
55 55 55 55 55 52 55 62 70 65 46 53 60 59 61 65 58 60 67 62 56 52 53 49 53 63 61 59 57 57 55 57 57 65 68 64 60 66 73 76 78 78 77 74 75
55 55 55 54 53 57 58 66 66 64 36 45 58 63 63 63 56 69 71 64 57 50 53 51 60 59 58 56 60 52 64 63 62 58 50 62 48 61 68 71 74 76 73 74 75
54 55 55 54 50 53 61 64 62 54 23 50 50 66 65 60 61 65 73 66 54 54 53 49 53 54 54 57 63 56 65 62 61 57 55 57 48 60 65 64 66 71 77 77 79
54 55 54 57 51 58 64 62 56 35 25 42 56 55 56 59 59 64 64 68 65 55 56 54 62 59 57 62 64 66 61 60 59 55 44 54 53 56 61 65 66 71 74 77 75
54 54 51 59 51 64 61 52 30 27 49 46 49 54 52 53 57 59 56 51 44 40 41 52 53 60 63 54 60 58 52 40 38 41 41 57 52 58 62 69 73 72 74 75 75
53 52 54 62 62 61 54 39 24 43 45 53 51 49 46 48 47 52 51 48 52 50 41 39 37 52 61 55 50 52 51 42 32 37 43 57 50 57 69 75 77 79 77 75 73
52 55 55 59 64 58 44 29 34 44 51 49 48 41 41 47 43 45 46 45 50 47 38 36 39 56 56 58 59 52 46 57 47 50 44 49 59 66 71 72 75 75 73 67 69
46 50 55 64 62 52 40 37 39 50 54 52 39 43 36 38 41 42 41 47 48 50 48 44 33 50 55 59 59 53 59 45 48 36 35 47 52 54 64 68 72 69 68 67 70
46 48 57 65 59 46 34 39 46 55 56 48 44 44 41 36 39 40 39 45 52 52 50 45 38 41 49 47 46 50 49 50 48 49 40 39 47 64 66 68 67 68 71 70 70
48 41 60 61 40 42 37 45 49 51 52 52 49 46 41 43 41 40 40 46 46 45 44 45 37 32 41 52 56 53 51 52 43 42 50 46 49 67 69 66 71 69 71 72 73
42 49 60 57 34 34 42 46 48 50 45 47 46 49 43 37 33 42 45 47 47 44 43 43 35 28 35 45 52 47 52 56 52 52 47 45 50 71 71 70 72 70 70 74 73
45 39 48 50 48 42 37 40 41 52 49 51 48 50 40 39 45 40 44 46 47 46 51 45 36 35 27 35 42 37 42 46 42 45 49 52 55 63 68 69 70 66 74 74 74
46 43 46 35 38 43 43 41 40 41 48 49 44 45 42 35 39 39 43 45 50 48 44 43 32 38 40 43 45 42 40 44 40 42 44 55 59 65 64 66 66 73 74 73 73
43 41 46 40 44 43 41 38 38 40 41 40 40 44 43 37 39 36 41 41 39 44 41 43 32 38 35 43 46 40 43 45 44 46 48 56 58 67 69 68 72 73 74 73 73
49 49 45 41 42 38 38 39 39 43 45 46 44 42 39 43 48 49 49 48 45 41 40 40 35 34 31 45 40 33 41 45 46 51 52 52 61 65 64 66 67 72 73 74 75

GFSSW_sfc_temp_048.txt.gz
Temp
60 60 60 60 60 60 60 59 60 60 60 60 60 60 60 60 59 56 54 68 69 72 72 77 75 75 75 70 72 70 53 50 57 63 67 77 73 83 87 84 86 87 85 87 88
59 59 59 59 59 59 59 59 59 59 60 60 60 60 60 60 53 51 66 71 72 73 75 73 72 73 65 67 67 61 53 56 67 70 69 75 76 79 81 79 81 83 87 90 88
59 60 60 59 59 59 59 59 59 59 60 60 60 59 59 58 51 59 74 70 72 73 77 77 77 74 64 67 65 62 59 66 69 73 76 76 77 81 79 75 77 79 85 87 84
59 59 59 59 59 59 59 59 59 59 59 59 59 59 59 53 48 67 74 73 72 72 72 72 70 63 60 62 70 60 69 70 72 76 76 73 78 75 77 78 86 87 88 85 82
58 59 58 58 58 58 58 58 58 59 59 59 59 59 54 46 48 71 73 74 76 71 68 68 65 63 57 62 67 64 67 73 75 76 76 77 74 74 76 83 87 85 85 82 81
58 58 58 58 58 58 58 57 57 57 58 58 59 60 50 38 61 67 69 70 71 70 69 69 66 68 62 60 62 65 68 69 72 72 75 73 74 76 79 84 84 85 81 80 80
57 57 57 57 57 58 57 57 57 57 58 59 60 59 50 44 62 64 62 61 66 68 66 74 74 69 64 58 66 67 60 66 68 70 69 74 68 70 80 83 81 82 81 80 80
57 57 57 57 57 57 57 57 56 57 58 59 60 57 44 61 62 59 60 60 67 68 69 72 71 65 60 63 64 59 58 54 66 69 71 69 60 74 78 78 77 78 82 84 84
57 56 56 57 57 57 57 56 57 59 60 60 53 48 42 64 59 64 63 61 68 70 70 77 67 60 59 52 48 52 49 52 59 70 69 68 63 73 79 76 73 76 79 81 83
57 56 56 56 56 56 55 55 57 59 61 62 60 47 52 56 68 71 68 67 64 65 64 60 57 52 48 46 42 46 49 54 55 63 68 66 64 72 75 76 75 77 79 79 80
56 56 55 55 55 55 52 47 51 49 53 50 54 54 57 65 69 67 71 68 64 59 48 54 46 45 51 55 56 57 55 52 57 66 64 62 62 68 72 70 71 75 74 74 77
56 56 56 55 55 55 49 46 53 54 44 58 58 58 62 63 55 61 68 56 54 47 53 48 43 54 58 57 54 53 50 49 56 64 62 62 61 68 71 72 73 74 73 72 70
55 55 55 55 54 52 50 55 60 56 41 51 56 58 59 60 53 55 62 58 51 47 47 44 49 59 56 53 52 51 50 50 51 59 62 59 54 58 67 68 72 71 74 73 71
54 55 55 54 51 50 51 60 58 55 37 44 52 59 60 59 52 64 65 58 52 47 48 46 54 54 53 50 54 46 57 56 55 52 45 60 44 57 64 67 70 71 69 69 72
54 55 54 54 45 46 56 56 57 51 20 51 53 67 64 56 59 61 67 60 50 50 49 45 48 48 49 52 57 50 59 57 56 50 50 52 43 55 58 61 65 68 69 73 76
54 54 54 50 46 51 56 55 51 32 20 44 56 53 52 55 57 62 59 63 60 53 53 51 57 54 52 57 58 59 54 53 53 47 39 48 46 51 56 61 64 65 69 74 76
54 53 51 53 46 54 53 47 30 23 48 44 46 51 50 46 49 51 51 46 39 38 37 46 49 56 59 50 54 50 41 33 30 33 36 51 47 53 58 62 65 67 68 70 70
52 52 50 53 51 52 48 37 24 40 41 51 50 49 43 46 46 47 45 42 51 46 40 38 34 50 57 50 43 45 43 33 27 29 38 51 43 52 66 73 73 74 75 74 64
51 44 47 53 56 51 41 26 29 39 46 44 47 40 39 44 44 45 41 41 45 45 35 35 37 52 55 55 51 44 41 47 39 45 36 44 51 61 68 68 71 72 68 67 64
43 42 47 57 56 47 36 35 39 47 49 48 37 42 36 37 38 38 39 45 43 49 46 41 32 47 52 55 54 49 51 38 37 30 30 40 44 48 55 60 65 65 68 61 62
42 42 53 57 53 40 26 33 43 51 51 44 40 39 40 37 38 37 40 46 45 45 45 41 36 39 46 44 42 42 41 42 41 39 36 33 41 55 58 60 64 66 65 62 63
40 37 55 57 37 37 32 41 47 47 51 45 46 43 39 39 37 39 38 43 48 47 38 41 34 30 37 48 53 48 43 41 34 35 39 43 44 63 62 64 67 64 65 65 66
37 39 53 51 33 30 38 42 44 45 45 44 44 44 42 38 33 39 43 47 47 45 40 40 32 26 31 39 47 44 46 43 39 42 40 36 43 64 63 67 71 61 65 66 65
39 34 40 40 41 33 35 39 39 48 46 46 44 45 40 37 40 37 40 47 49 48 51 45 34 31 24 33 40 37 43 44 38 32 39 44 48 58 63 65 68 65 66 66 66
39 34 39 29 34 37 38 38 37 36 44 44 40 41 37 32 35 35 40 42 47 50 44 38 31 38 38 40 42 40 41 44 40 40 34 43 42 49 55 65 69 65 67 66 66
36 36 39 35 38 39 37 37 36 38 38 37 36 40 39 33 36 33 38 39 38 42 37 39 33 36 33 41 41 38 43 44 45 45 44 44 43 57 60 62 64 68 68 66 67
40 42 41 39 36 36 36 37 38 41 42 43 41 38 37 39 44 46 46 44 42 38 34 34 32 33 30 38 39 33 41 44 46 49 47 40 49 58 58 59 57 63 69 68 68